Tracking 29892 objects as of 21-Nov-2024
HD Live streaming from Space Station
objects crossing your sky now

STARLINK-2013

Track STARLINK-2013 now!
10-day predictions
STARLINK-2013 is classified as:


NORAD ID: 47636
Int'l Code: 2021-012S
Perigee: 467.8 km
Apogee: 469.2 km
Inclination: 53.1 °
Period: 93.8 minutes
Semi major axis: 6839 km
RCS: Unknown
Launch date: February 16, 2021
Source: United States (US)
Launch site: AIR FORCE EASTERN TEST RANGE (AFETR)
Your satellite tracking list
Your tracking list is empty




NASA's NSSDC Master Catalog

Two Line Element Set (TLE):
1 47636U 21012S   24326.16667824  .00185907  00000-0  53028-2 0  9999
2 47636  53.0528  12.5873 0001047  70.4906   5.6782 15.34843876208440
Source of the keplerian elements: AFSPC